Location: Santa Barbara
(34.4500°N, 119.7700°W)
Time: 04:45:29
(UTC-07:00)

Cosmos 1892 Rocket - Visible Passes

Search period start: 30 September 2016 00:00
Search period end: 10 October 2016 00:00
Orbit: 607 x 633 km, 82.5° (Epoch: 29 September)

Date Brightness Start Highest point End Pass type
(mag) Time Alt. Az. Time Alt. Az. Time Alt. Az.
30 Sep 4.7 04:57:51 33° NNW 04:57:51 33° NNW 05:00:29 10° N visible
01 Oct 6.7 03:39:01 11° NE 03:39:01 11° NE 03:39:17 10° NE visible
01 Oct 5.4 05:16:14 19° NNW 05:16:14 19° NNW 05:17:47 10° NNW visible
02 Oct 6.5 03:57:19 13° NNE 03:57:19 13° NNE 03:57:48 10° NNE visible
03 Oct 6.4 04:15:32 11° N 04:15:32 11° N 04:15:46 10° N visible
